Location: *
(10.5081°N, 66.9194°W)
Time: 04:47:39
(UTC+00:00)

Cosmos 1766 - Pass Details

Date: 30 March 2020
Orbit: 521 x 545 km, 82.5° (Epoch: 23 May)

Event Time Altitude Azimuth Distance (km) Brightness Sun altitude
Rises 23:00:28 0° 183° (S) 2,692 6.8 -6.2°
Reaches altitude 10° 23:02:37 10° 183° (S) 1,802 5.9 -6.8°
Maximum altitude 23:06:35 88° 91° (E) 547 3.3 -7.7°
Drops below altitude 10° 23:10:34 10° 5° (N) 1,804 6.0 -8.7°
Sets 23:12:43 0° 5° (N) 2,695 6.9 -9.2°
